Time,TemperatureF,DewpointF,PressureIn,WindDirection,WindDirectionDegrees,WindSpeedMPH,WindSpeedGustMPH,Humidity,HourlyPrecipIn,Conditions,Clouds,dailyrainin,SoftwareType,DateUTC
2013-11-26 00:00:00,29.4,26.3,30.10,NNW,337,2.0,6.0,88,0.00,,SKC,0.00,VWS V14.01,2013-11-26 05:00:00,
2013-11-26 00:01:00,29.4,26.3,30.10,NNW,337,3.0,4.0,88,0.00,,SKC,0.00,VWS V14.01,2013-11-26 05:01:00,
2013-11-26 00:02:00,29.4,26.3,30.10,NNW,337,4.0,4.0,88,0.00,,SKC,0.00,VWS V14.01,2013-11-26 05:02:00,
2013-11-26 00:03:00,29.4,26.3,30.10,NNW,337,4.0,5.0,88,0.00,,SKC,0.00,VWS V14.01,2013-11-26 05:03:00,
2013-11-26 00:08:00,29.5,26.4,30.09,NNW,337,2.0,5.0,88,0.00,,SKC,0.00,VWS V14.01,2013-11-26 05:08:00,
2013-11-26 00:13:00,29.5,26.4,30.09,NNW,337,4.0,6.0,88,0.00,,SKC,0.00,VWS V14.01,2013-11-26 05:13:00,
2013-11-26 00:18:00,29.5,26.4,30.09,NNW,337,3.0,6.0,88,0.00,,SKC,0.00,VWS V14.01,2013-11-26 05:18:00,
2013-11-26 00:24:00,29.5,26.4,30.09,NNW,337,4.0,6.0,88,0.00,,SKC,0.00,VWS V14.01,2013-11-26 05:24:00,
2013-11-26 00:29:00,29.5,26.4,30.09,NNW,337,2.0,6.0,88,0.00,,SKC,0.00,VWS V14.01,2013-11-26 05:29:00,
2013-11-26 00:34:00,29.5,26.4,30.09,NNW,337,2.0,6.0,88,0.00,,SKC,0.00,VWS V14.01,2013-11-26 05:34:00,
2013-11-26 00:39:00,29.4,26.3,30.08,NNW,337,0.0,6.0,88,0.00,,SKC,0.00,VWS V14.01,2013-11-26 05:39:00,
2013-11-26 00:44:00,29.4,26.3,30.08,NNW,337,1.0,6.0,88,0.00,,SKC,0.00,VWS V14.01,2013-11-26 05:44:00,
2013-11-26 00:49:00,29.4,26.3,30.08,NNW,337,0.0,6.0,88,0.00,,SKC,0.00,VWS V14.01,2013-11-26 05:49:00,
2013-11-26 00:54:00,29.4,26.6,30.08,NNW,337,0.0,0.0,89,0.00,,SKC,0.00,VWS V14.01,2013-11-26 05:54:00,
2013-11-26 00:59:00,29.4,26.6,30.08,NNW,337,0.0,1.0,89,0.00,,SKC,0.00,VWS V14.01,2013-11-26 05:59:00,
2013-11-26 01:00:00,29.4,26.3,30.08,NNW,337,0.0,6.0,88,0.00,,SKC,0.00,VWS V14.01,2013-11-26 06:00:00,
2013-11-26 01:05:00,29.4,26.6,30.08,NNW,337,1.0,2.0,89,0.00,,SKC,0.00,VWS V14.01,2013-11-26 06:05:00,
2013-11-26 01:10:00,29.4,26.6,30.09,NNW,337,0.0,2.0,89,0.00,,SKC,0.00,VWS V14.01,2013-11-26 06:10:00,
2013-11-26 01:15:00,29.4,26.6,30.09,NNW,337,2.0,2.0,89,0.00,,SKC,0.00,VWS V14.01,2013-11-26 06:15:00,
2013-11-26 01:20:00,29.4,26.6,30.09,NNW,337,2.0,4.0,89,0.00,,SKC,0.00,VWS V14.01,2013-11-26 06:20:00,
2013-11-26 01:25:00,29.4,26.6,30.08,NNW,337,0.0,4.0,89,0.00,,SKC,0.00,VWS V14.01,2013-11-26 06:25:00,
2013-11-26 01:30:00,29.4,26.6,30.08,NNW,337,0.0,5.0,89,0.00,,SKC,0.00,VWS V14.01,2013-11-26 06:30:00,
2013-11-26 01:35:00,29.4,26.6,30.08,NNW,337,0.0,5.0,89,0.00,,SKC,0.00,VWS V14.01,2013-11-26 06:35:00,
2013-11-26 01:40:00,29.4,26.6,30.09,NNW,337,1.0,5.0,89,0.00,,SKC,0.00,VWS V14.01,2013-11-26 06:40:00,
2013-11-26 01:45:00,29.4,26.6,30.09,NNW,337,0.0,5.0,89,0.00,,SKC,0.00,VWS V14.01,2013-11-26 06:45:00,
2013-11-26 01:50:00,29.4,26.6,30.09,NNW,337,1.0,5.0,89,0.00,,SKC,0.00,VWS V14.01,2013-11-26 06:50:00,
2013-11-26 01:56:00,29.4,26.6,30.09,NNW,337,2.0,5.0,89,0.00,,SKC,0.00,VWS V14.01,2013-11-26 06:56:00,
2013-11-26 02:00:00,29.4,26.6,30.09,NNW,337,0.0,5.0,89,0.00,,SKC,0.00,VWS V14.01,2013-11-26 07:00:00,
2013-11-26 02:01:00,29.4,26.6,30.09,NNW,337,5.0,7.0,89,0.00,,SKC,0.00,VWS V14.01,2013-11-26 07:01:00,
2013-11-26 02:06:00,29.4,26.6,30.09,NNW,337,4.0,7.0,89,0.00,,SKC,0.00,VWS V14.01,2013-11-26 07:06:00,
2013-11-26 02:11:00,29.4,26.6,30.09,NNW,337,4.0,7.0,89,0.00,,SKC,0.00,VWS V14.01,2013-11-26 07:11:00,
2013-11-26 02:16:00,29.5,26.7,30.09,NNW,337,3.0,7.0,89,0.00,,SKC,0.00,VWS V14.01,2013-11-26 07:16:00,
2013-11-26 02:21:00,29.4,26.6,30.08,NNW,337,2.0,7.0,89,0.00,,SKC,0.00,VWS V14.01,2013-11-26 07:21:00,
2013-11-26 02:26:00,29.5,26.7,30.08,NNW,337,4.0,7.0,89,0.00,,SKC,0.00,VWS V14.01,2013-11-26 07:26:00,
2013-11-26 02:31:00,29.5,26.7,30.08,NNW,337,0.0,7.0,89,0.00,,SKC,0.00,VWS V14.01,2013-11-26 07:31:00,
2013-11-26 02:37:00,29.5,26.7,30.08,NNW,337,0.0,7.0,89,0.00,,SKC,0.00,VWS V14.01,2013-11-26 07:37:00,
2013-11-26 02:42:00,29.5,26.7,30.08,NNW,337,0.0,7.0,89,0.00,,SKC,0.00,VWS V14.01,2013-11-26 07:42:00,
2013-11-26 02:47:00,29.5,26.7,30.08,NNW,337,3.0,7.0,89,0.00,,SKC,0.00,VWS V14.01,2013-11-26 07:47:00,
2013-11-26 02:52:00,29.5,26.7,30.07,NNW,337,1.0,7.0,89,0.00,,SKC,0.00,VWS V14.01,2013-11-26 07:52:00,
2013-11-26 02:57:00,29.5,26.7,30.07,NNW,337,0.0,2.0,89,0.00,,SKC,0.00,VWS V14.01,2013-11-26 07:57:00,
2013-11-26 03:00:00,29.5,26.7,30.07,NNW,337,0.0,7.0,89,0.00,,SKC,0.00,VWS V14.01,2013-11-26 08:00:00,
2013-11-26 03:02:00,29.7,26.9,30.07,NNW,337,2.0,6.0,89,0.00,,SKC,0.00,VWS V14.01,2013-11-26 08:02:00,
2013-11-26 03:07:00,29.7,26.6,30.07,NNW,337,2.0,6.0,88,0.00,,SKC,0.00,VWS V14.01,2013-11-26 08:07:00,
2013-11-26 03:12:00,29.7,26.6,30.07,NNW,337,2.0,6.0,88,0.00,,SKC,0.00,VWS V14.01,2013-11-26 08:12:00,
2013-11-26 03:17:00,29.7,26.6,30.07,NNW,337,4.0,6.0,88,0.00,,SKC,0.00,VWS V14.01,2013-11-26 08:17:00,
2013-11-26 03:22:00,29.7,26.6,30.06,NNW,337,5.0,6.0,88,0.00,,SKC,0.00,VWS V14.01,2013-11-26 08:22:00,
2013-11-26 03:28:00,29.7,26.3,30.06,NNW,337,5.0,7.0,87,0.00,,SKC,0.00,VWS V14.01,2013-11-26 08:28:00,
2013-11-26 03:33:00,29.7,26.3,30.06,NNW,337,6.0,8.0,87,0.00,,SKC,0.00,VWS V14.01,2013-11-26 08:33:00,
2013-11-26 03:38:00,29.7,26.3,30.06,NNW,337,5.0,8.0,87,0.00,,SKC,0.00,VWS V14.01,2013-11-26 08:38:00,
2013-11-26 03:43:00,29.7,26.3,30.06,NNW,337,5.0,8.0,87,0.00,,SKC,0.00,VWS V14.01,2013-11-26 08:43:00,
2013-11-26 03:48:00,29.8,26.4,30.06,NNW,337,6.0,8.0,87,0.00,,SKC,0.00,VWS V14.01,2013-11-26 08:48:00,
2013-11-26 03:53:00,29.8,26.4,30.06,NNW,337,5.0,6.0,87,0.00,,SKC,0.00,VWS V14.01,2013-11-26 08:53:00,
2013-11-26 03:58:00,29.8,26.4,30.06,NNW,337,6.0,7.0,87,0.00,,SKC,0.00,VWS V14.01,2013-11-26 08:58:00,
2013-11-26 04:00:00,29.8,26.4,30.06,NNW,337,5.0,8.0,87,0.00,,SKC,0.00,VWS V14.01,2013-11-26 09:00:00,
2013-11-26 04:03:00,29.7,26.0,30.06,NNW,337,6.0,8.0,86,0.00,,SKC,0.00,VWS V14.01,2013-11-26 09:03:00,
2013-11-26 04:09:00,29.8,26.1,30.07,NNW,337,5.0,8.0,86,0.00,,SKC,0.00,VWS V14.01,2013-11-26 09:09:00,
2013-11-26 04:14:00,29.7,26.0,30.07,NNW,337,7.0,8.0,86,0.00,,SKC,0.00,VWS V14.01,2013-11-26 09:14:00,
2013-11-26 04:19:00,29.8,26.1,30.07,NNW,337,4.0,8.0,86,0.00,,SKC,0.00,VWS V14.01,2013-11-26 09:19:00,
2013-11-26 04:24:00,29.7,26.0,30.07,NNW,337,6.0,8.0,86,0.00,,SKC,0.00,VWS V14.01,2013-11-26 09:24:00,
2013-11-26 04:29:00,29.7,26.0,30.07,NNW,337,4.0,8.0,86,0.00,,SKC,0.00,VWS V14.01,2013-11-26 09:29:00,
2013-11-26 04:34:00,29.7,26.0,30.07,NNW,337,5.0,8.0,86,0.00,,SKC,0.00,VWS V14.01,2013-11-26 09:34:00,
2013-11-26 04:39:00,29.7,26.0,30.06,NNW,337,5.0,8.0,86,0.00,,SKC,0.00,VWS V14.01,2013-11-26 09:39:00,
2013-11-26 04:44:00,29.8,26.1,30.06,NNW,337,2.0,8.0,86,0.00,,SKC,0.00,VWS V14.01,2013-11-26 09:44:00,
2013-11-26 04:49:00,29.8,26.1,30.06,NNW,337,4.0,8.0,86,0.00,,SKC,0.00,VWS V14.01,2013-11-26 09:49:00,
2013-11-26 04:55:00,29.7,26.0,30.06,NNW,337,5.0,5.0,86,0.00,,SKC,0.00,VWS V14.01,2013-11-26 09:55:00,
2013-11-26 05:00:00,29.8,26.1,30.06,NNW,337,3.0,6.0,86,0.00,,SKC,0.00,VWS V14.01,2013-11-26 10:00:00,
2013-11-26 05:05:00,29.8,26.1,30.06,NNW,337,6.0,6.0,86,0.00,,SKC,0.00,VWS V14.01,2013-11-26 10:05:00,
2013-11-26 05:10:00,29.8,26.1,30.06,NNW,337,4.0,6.0,86,0.00,,SKC,0.00,VWS V14.01,2013-11-26 10:10:00,
2013-11-26 05:15:00,29.7,26.0,30.06,NNW,337,0.0,6.0,86,0.00,,SKC,0.00,VWS V14.01,2013-11-26 10:15:00,
2013-11-26 05:20:00,29.7,26.0,30.06,NNW,337,2.0,6.0,86,0.00,,SKC,0.00,VWS V14.01,2013-11-26 10:20:00,
2013-11-26 05:25:00,29.7,26.0,30.04,NNW,337,4.0,6.0,86,0.00,,SKC,0.00,VWS V14.01,2013-11-26 10:25:00,
2013-11-26 05:30:00,29.5,26.1,30.04,NNW,337,2.0,6.0,87,0.00,,SKC,0.00,VWS V14.01,2013-11-26 10:30:00,
2013-11-26 05:35:00,29.5,26.1,30.04,NNW,337,1.0,6.0,87,0.00,,SKC,0.00,VWS V14.01,2013-11-26 10:35:00,
2013-11-26 05:40:00,29.5,26.1,30.04,NNW,337,4.0,6.0,87,0.00,,SKC,0.00,VWS V14.01,2013-11-26 10:40:00,
2013-11-26 05:46:00,29.5,26.1,30.04,NNW,337,2.0,6.0,87,0.00,,SKC,0.00,VWS V14.01,2013-11-26 10:46:00,
2013-11-26 05:51:00,29.5,26.1,30.04,NNW,337,2.0,6.0,87,0.00,,SKC,0.00,VWS V14.01,2013-11-26 10:51:00,
2013-11-26 05:56:00,29.5,26.1,30.02,NNW,337,5.0,5.0,87,0.00,,SKC,0.00,VWS V14.01,2013-11-26 10:56:00,
2013-11-26 06:00:00,29.5,26.1,30.02,NNW,337,4.0,6.0,87,0.00,,SKC,0.00,VWS V14.01,2013-11-26 11:00:00,
2013-11-26 06:01:00,29.5,26.1,30.02,NNW,337,4.0,5.0,87,0.00,,SKC,0.00,VWS V14.01,2013-11-26 11:01:00,
2013-11-26 06:06:00,29.5,26.1,30.02,NNW,337,4.0,5.0,87,0.00,,SKC,0.00,VWS V14.01,2013-11-26 11:06:00,
2013-11-26 06:11:00,29.5,26.4,30.03,NNW,337,4.0,5.0,88,0.00,,SKC,0.00,VWS V14.01,2013-11-26 11:11:00,
2013-11-26 06:16:00,29.7,26.6,30.03,NNW,337,4.0,6.0,88,0.00,,SKC,0.00,VWS V14.01,2013-11-26 11:16:00,
2013-11-26 06:21:00,29.7,26.6,30.03,NNW,337,3.0,6.0,88,0.00,,SKC,0.00,VWS V14.01,2013-11-26 11:21:00,
2013-11-26 06:26:00,29.5,26.4,30.03,NNW,337,4.0,6.0,88,0.00,,SKC,0.00,VWS V14.01,2013-11-26 11:26:00,
2013-11-26 06:32:00,29.5,26.4,30.03,NNW,337,4.0,6.0,88,0.00,,SKC,0.00,VWS V14.01,2013-11-26 11:32:00,
2013-11-26 06:37:00,29.5,26.4,30.02,NNW,337,4.0,6.0,88,0.00,,SKC,0.00,VWS V14.01,2013-11-26 11:37:00,
2013-11-26 06:42:00,29.5,26.4,30.02,NNW,337,5.0,6.0,88,0.00,,SKC,0.00,VWS V14.01,2013-11-26 11:42:00,
2013-11-26 06:47:00,29.7,26.6,30.02,NNW,337,2.0,6.0,88,0.00,,SKC,0.00,VWS V14.01,2013-11-26 11:47:00,
2013-11-26 06:52:00,29.7,26.6,30.04,NNW,337,4.0,6.0,88,0.00,,SKC,0.00,VWS V14.01,2013-11-26 11:52:00,
2013-11-26 06:57:00,29.7,26.6,30.04,NNW,337,4.0,5.0,88,0.00,,SKC,0.00,VWS V14.01,2013-11-26 11:57:00,
2013-11-26 07:00:00,29.7,26.6,30.04,NNW,337,4.0,6.0,88,0.00,,SKC,0.00,VWS V14.01,2013-11-26 12:00:00,
2013-11-26 07:02:00,29.7,26.6,30.04,NNW,337,3.0,5.0,88,0.00,,SKC,0.00,VWS V14.01,2013-11-26 12:02:00,
2013-11-26 07:07:00,29.7,26.6,30.04,NNW,337,2.0,5.0,88,0.00,,SKC,0.00,VWS V14.01,2013-11-26 12:07:00,
2013-11-26 07:13:00,29.8,26.7,30.04,NNW,337,2.0,5.0,88,0.00,,SKC,0.00,VWS V14.01,2013-11-26 12:13:00,
2013-11-26 07:18:00,29.8,26.7,30.04,NNW,337,2.0,5.0,88,0.00,,SKC,0.00,VWS V14.01,2013-11-26 12:18:00,
2013-11-26 07:23:00,29.8,26.7,30.04,NNW,337,3.0,5.0,88,0.00,,SKC,0.00,VWS V14.01,2013-11-26 12:23:00,
2013-11-26 07:28:00,29.8,26.7,30.04,NNW,337,4.0,5.0,88,0.00,,SKC,0.00,VWS V14.01,2013-11-26 12:28:00,
2013-11-26 07:33:00,29.8,26.7,30.04,NNW,337,2.0,5.0,88,0.00,,SKC,0.00,VWS V14.01,2013-11-26 12:33:00,
2013-11-26 07:38:00,30.0,26.9,30.03,NNW,337,4.0,5.0,88,0.00,,SKC,0.00,VWS V14.01,2013-11-26 12:38:00,
2013-11-26 07:43:00,30.0,26.9,30.03,NNW,337,4.0,5.0,88,0.00,,SKC,0.00,VWS V14.01,2013-11-26 12:43:00,
2013-11-26 07:48:00,30.1,27.0,30.03,NNW,337,4.0,5.0,88,0.00,,SKC,0.00,VWS V14.01,2013-11-26 12:48:00,
2013-11-26 07:53:00,30.1,27.0,30.03,NNW,337,2.0,5.0,88,0.00,,SKC,0.00,VWS V14.01,2013-11-26 12:53:00,
2013-11-26 07:59:00,30.1,27.0,30.03,NNW,337,2.0,5.0,88,0.00,,SKC,0.00,VWS V14.01,2013-11-26 12:59:00,
2013-11-26 08:00:00,30.1,27.0,30.03,NNW,337,2.0,5.0,88,0.00,,SKC,0.00,VWS V14.01,2013-11-26 13:00:00,
2013-11-26 08:04:00,30.3,27.2,30.03,NNW,337,2.0,5.0,88,0.00,,SKC,0.00,VWS V14.01,2013-11-26 13:04:00,
2013-11-26 08:09:00,30.3,27.2,30.02,NNW,337,1.0,5.0,88,0.00,,SKC,0.00,VWS V14.01,2013-11-26 13:09:00,
2013-11-26 08:14:00,30.3,27.2,30.02,NNW,337,0.0,5.0,88,0.00,,SKC,0.00,VWS V14.01,2013-11-26 13:14:00,
2013-11-26 08:19:00,30.3,27.2,30.02,NNW,337,2.0,5.0,88,0.00,,SKC,0.00,VWS V14.01,2013-11-26 13:19:00,
2013-11-26 08:24:00,30.4,27.3,30.02,NNW,337,2.0,5.0,88,0.00,,SKC,0.00,VWS V14.01,2013-11-26 13:24:00,
2013-11-26 08:29:00,30.4,27.3,30.02,NNW,337,0.0,5.0,88,0.00,,SKC,0.00,VWS V14.01,2013-11-26 13:29:00,
2013-11-26 08:34:00,30.4,27.3,30.02,NNW,337,2.0,5.0,88,0.00,,SKC,0.00,VWS V14.01,2013-11-26 13:34:00,
2013-11-26 08:39:00,30.6,27.5,30.01,NNW,337,2.0,5.0,88,0.00,,SKC,0.00,VWS V14.01,2013-11-26 13:39:00,
2013-11-26 08:44:00,30.6,27.5,30.01,NNW,337,0.0,5.0,88,0.00,,SKC,0.00,VWS V14.01,2013-11-26 13:44:00,
2013-11-26 08:49:00,30.7,27.6,30.01,NNW,337,2.0,5.0,88,0.00,,SKC,0.00,VWS V14.01,2013-11-26 13:49:00,
2013-11-26 08:54:00,30.7,27.6,30.00,NNW,337,2.0,4.0,88,0.00,,SKC,0.00,VWS V14.01,2013-11-26 13:54:00,
2013-11-26 08:59:00,30.7,27.6,30.00,NNW,337,2.0,4.0,88,0.00,,SKC,0.00,VWS V14.01,2013-11-26 13:59:00,
2013-11-26 09:00:00,30.7,27.6,30.00,NNW,337,2.0,5.0,88,0.00,,SKC,0.00,VWS V14.01,2013-11-26 14:00:00,
2013-11-26 09:05:00,30.7,27.6,30.00,NNW,337,2.0,4.0,88,0.00,,SKC,0.00,VWS V14.01,2013-11-26 14:05:00,
2013-11-26 09:10:00,30.7,27.6,30.00,NNW,337,2.0,4.0,88,0.00,,SKC,0.00,VWS V14.01,2013-11-26 14:10:00,
2013-11-26 09:15:00,30.9,27.8,30.00,NNW,337,2.0,4.0,88,0.00,,SKC,0.00,VWS V14.01,2013-11-26 14:15:00,
2013-11-26 09:20:00,30.9,27.8,30.00,NNW,337,1.0,4.0,88,0.00,,SKC,0.00,VWS V14.01,2013-11-26 14:20:00,
2013-11-26 09:25:00,30.9,27.8,30.01,NNW,337,2.0,4.0,88,0.00,,SKC,0.00,VWS V14.01,2013-11-26 14:25:00,
2013-11-26 09:30:00,31.0,27.9,30.01,NNW,337,4.0,4.0,88,0.00,,SKC,0.00,VWS V14.01,2013-11-26 14:30:00,
2013-11-26 09:35:00,31.0,27.9,30.01,NNW,337,2.0,4.0,88,0.00,,SKC,0.00,VWS V14.01,2013-11-26 14:35:00,
2013-11-26 09:40:00,31.0,27.9,30.01,NNW,337,3.0,4.0,88,0.00,,SKC,0.00,VWS V14.01,2013-11-26 14:40:00,
2013-11-26 09:46:00,30.9,27.5,30.01,NNW,337,0.0,4.0,87,0.00,,SKC,0.00,VWS V14.01,2013-11-26 14:46:00,
2013-11-26 09:51:00,30.9,27.5,30.01,NNW,337,0.0,4.0,87,0.00,,SKC,0.00,VWS V14.01,2013-11-26 14:51:00,
2013-11-26 09:56:00,31.0,27.6,30.00,NNW,337,1.0,2.0,87,0.00,,SKC,0.00,VWS V14.01,2013-11-26 14:56:00,
2013-11-26 10:00:00,31.0,27.9,30.00,NNW,337,0.0,4.0,88,0.00,,SKC,0.00,VWS V14.01,2013-11-26 15:00:00,
2013-11-26 10:01:00,31.0,27.6,30.00,NNW,337,2.0,4.0,87,0.00,,SKC,0.00,VWS V14.01,2013-11-26 15:01:00,
2013-11-26 10:06:00,31.0,27.6,30.00,NNW,337,1.0,4.0,87,0.00,,SKC,0.00,VWS V14.01,2013-11-26 15:06:00,
2013-11-26 10:11:00,31.0,27.6,30.01,NNW,337,2.0,4.0,87,0.00,,SKC,0.00,VWS V14.01,2013-11-26 15:11:00,
2013-11-26 10:16:00,31.0,27.6,30.01,NNW,337,2.0,4.0,87,0.00,,SKC,0.00,VWS V14.01,2013-11-26 15:16:00,
2013-11-26 10:21:00,31.2,28.1,30.00,NNW,337,1.0,4.0,88,0.00,,SKC,0.00,VWS V14.01,2013-11-26 15:21:00,
2013-11-26 10:26:00,31.2,28.1,30.00,NNW,337,0.0,4.0,88,0.00,,SKC,0.00,VWS V14.01,2013-11-26 15:26:00,
2013-11-26 10:32:00,31.3,28.2,30.00,NNW,337,0.0,4.0,88,0.00,,SKC,0.00,VWS V14.01,2013-11-26 15:32:00,
2013-11-26 10:37:00,31.3,28.2,30.00,NNW,337,0.0,4.0,88,0.00,,SKC,0.00,VWS V14.01,2013-11-26 15:37:00,
2013-11-26 10:42:00,31.3,28.2,30.00,NNW,337,1.0,4.0,88,0.00,,SKC,0.00,VWS V14.01,2013-11-26 15:42:00,
2013-11-26 10:47:00,31.3,28.2,30.00,NNW,337,1.0,4.0,88,0.00,,SKC,0.00,VWS V14.01,2013-11-26 15:47:00,
2013-11-26 10:52:00,31.3,28.2,30.00,NNW,337,0.0,4.0,88,0.00,,SKC,0.00,VWS V14.01,2013-11-26 15:52:00,
2013-11-26 10:57:00,31.5,28.4,30.00,NNW,337,2.0,3.0,88,0.00,,SKC,0.00,VWS V14.01,2013-11-26 15:57:00,
2013-11-26 11:00:00,31.3,28.2,30.00,NNW,337,0.0,4.0,88,0.00,,SKC,0.00,VWS V14.01,2013-11-26 16:00:00,
2013-11-26 11:02:00,31.5,28.4,30.00,NNW,337,0.0,3.0,88,0.00,,SKC,0.00,VWS V14.01,2013-11-26 16:02:00,
2013-11-26 11:07:00,31.5,28.4,30.00,NNW,337,0.0,3.0,88,0.00,,SKC,0.00,VWS V14.01,2013-11-26 16:07:00,
2013-11-26 11:12:00,31.5,28.6,30.00,NNW,337,0.0,3.0,89,0.00,,SKC,0.00,VWS V14.01,2013-11-26 16:12:00,
2013-11-26 11:18:00,31.5,28.6,30.00,NNW,337,2.0,3.0,89,0.00,,SKC,0.00,VWS V14.01,2013-11-26 16:18:00,
2013-11-26 11:23:00,31.5,28.6,29.98,NNW,337,0.0,3.0,89,0.00,,SKC,0.00,VWS V14.01,2013-11-26 16:23:00,
2013-11-26 11:28:00,31.5,28.6,29.98,NNW,337,0.0,3.0,89,0.00,,SKC,0.00,VWS V14.01,2013-11-26 16:28:00,
2013-11-26 11:33:00,31.5,28.6,29.98,NNW,337,0.0,3.0,89,0.00,,SKC,0.00,VWS V14.01,2013-11-26 16:33:00,
2013-11-26 11:38:00,31.5,28.6,29.97,NNW,337,0.0,3.0,89,0.00,,SKC,0.00,VWS V14.01,2013-11-26 16:38:00,
2013-11-26 11:43:00,31.5,28.6,29.97,NNW,337,0.0,3.0,89,0.00,,SKC,0.00,VWS V14.01,2013-11-26 16:43:00,
2013-11-26 11:48:00,31.6,28.7,29.97,NNW,337,0.0,3.0,89,0.00,,SKC,0.00,VWS V14.01,2013-11-26 16:48:00,
2013-11-26 11:53:00,31.6,29.0,29.97,NNW,337,0.0,0.0,90,0.00,,SKC,0.00,VWS V14.01,2013-11-26 16:53:00,
2013-11-26 11:58:00,31.6,29.0,29.97,NNW,337,0.0,1.0,90,0.00,,SKC,0.00,VWS V14.01,2013-11-26 16:58:00,
2013-11-26 12:00:00,31.6,29.0,29.97,NNW,337,0.0,3.0,90,0.00,,SKC,0.00,VWS V14.01,2013-11-26 17:00:00,
2013-11-26 12:04:00,31.6,29.0,29.97,NNW,337,0.0,1.0,90,0.00,,SKC,0.00,VWS V14.01,2013-11-26 17:04:00,
2013-11-26 12:09:00,31.6,29.0,29.96,NNW,337,0.0,1.0,90,0.00,,SKC,0.00,VWS V14.01,2013-11-26 17:09:00,
2013-11-26 12:14:00,31.6,29.0,29.96,NNW,337,0.0,1.0,90,0.00,,SKC,0.00,VWS V14.01,2013-11-26 17:14:00,
2013-11-26 12:19:00,31.6,29.0,29.96,NNW,337,0.0,1.0,90,0.00,,SKC,0.00,VWS V14.01,2013-11-26 17:19:00,
2013-11-26 12:24:00,31.6,29.0,29.95,NNW,337,0.0,1.0,90,0.00,,SKC,0.00,VWS V14.01,2013-11-26 17:24:00,
2013-11-26 12:29:00,31.6,29.0,29.95,NNW,337,0.0,1.0,90,0.01,,SKC,0.01,VWS V14.01,2013-11-26 17:29:00,
2013-11-26 12:34:00,31.6,29.0,29.95,NNW,337,0.0,1.0,90,0.01,,SKC,0.01,VWS V14.01,2013-11-26 17:34:00,
2013-11-26 12:39:00,31.6,29.0,29.94,NNW,337,0.0,1.0,90,0.01,,SKC,0.01,VWS V14.01,2013-11-26 17:39:00,
2013-11-26 12:44:00,31.6,29.0,29.94,NNW,337,0.0,1.0,90,0.01,,SKC,0.01,VWS V14.01,2013-11-26 17:44:00,
2013-11-26 12:49:00,31.6,29.0,29.94,NNW,337,1.0,1.0,90,0.01,,SKC,0.01,VWS V14.01,2013-11-26 17:49:00,
2013-11-26 12:55:00,31.5,28.9,29.94,NNW,337,0.0,1.0,90,0.01,,SKC,0.01,VWS V14.01,2013-11-26 17:55:00,
2013-11-26 13:00:00,31.5,28.9,29.94,NNW,337,0.0,1.0,90,0.01,,SKC,0.01,VWS V14.01,2013-11-26 18:00:00,
2013-11-26 13:05:00,31.5,28.9,29.94,NNW,337,1.0,2.0,90,0.01,,SKC,0.01,VWS V14.01,2013-11-26 18:05:00,
2013-11-26 13:10:00,31.5,28.9,29.94,NNW,337,1.0,2.0,90,0.01,,SKC,0.01,VWS V14.01,2013-11-26 18:10:00,
2013-11-26 13:15:00,31.5,29.2,29.94,NNW,337,0.0,2.0,91,0.01,,SKC,0.01,VWS V14.01,2013-11-26 18:15:00,
2013-11-26 13:20:00,31.5,29.2,29.94,NNW,337,0.0,2.0,91,0.01,,SKC,0.01,VWS V14.01,2013-11-26 18:20:00,
2013-11-26 13:25:00,31.5,29.2,29.93,NNW,337,0.0,2.0,91,0.01,,SKC,0.01,VWS V14.01,2013-11-26 18:25:00,
2013-11-26 13:30:00,31.5,29.2,29.93,NNW,337,0.0,2.0,91,0.01,,SKC,0.01,VWS V14.01,2013-11-26 18:30:00,
2013-11-26 13:35:00,31.5,29.2,29.93,NNW,337,0.0,2.0,91,0.01,,SKC,0.01,VWS V14.01,2013-11-26 18:35:00,
2013-11-26 13:41:00,31.5,29.2,29.91,NNW,337,0.0,2.0,91,0.01,,SKC,0.01,VWS V14.01,2013-11-26 18:41:00,
2013-11-26 13:46:00,31.5,29.2,29.91,NNW,337,0.0,2.0,91,0.01,,SKC,0.01,VWS V14.01,2013-11-26 18:46:00,
2013-11-26 13:51:00,31.5,29.2,29.91,NNW,337,0.0,2.0,91,0.01,,SKC,0.01,VWS V14.01,2013-11-26 18:51:00,
2013-11-26 13:56:00,31.5,29.2,29.89,NNW,337,0.0,0.0,91,0.00,,SKC,0.01,VWS V14.01,2013-11-26 18:56:00,
2013-11-26 14:00:00,31.5,29.2,29.89,NNW,337,0.0,2.0,91,0.01,,SKC,0.01,VWS V14.01,2013-11-26 19:00:00,
2013-11-26 14:01:00,31.6,29.3,29.89,NNW,337,0.0,0.0,91,0.00,,SKC,0.01,VWS V14.01,2013-11-26 19:01:00,
2013-11-26 14:06:00,31.5,29.2,29.87,NNW,337,0.0,0.0,91,0.00,,SKC,0.01,VWS V14.01,2013-11-26 19:06:00,
2013-11-26 14:11:00,31.5,29.2,29.87,NNW,337,0.0,2.0,91,0.00,,SKC,0.01,VWS V14.01,2013-11-26 19:11:00,
2013-11-26 14:16:00,31.5,29.2,29.87,NNW,337,1.0,2.0,91,0.00,,SKC,0.01,VWS V14.01,2013-11-26 19:16:00,
2013-11-26 14:21:00,31.5,29.2,29.86,NNW,337,0.0,2.0,91,0.00,,SKC,0.01,VWS V14.01,2013-11-26 19:21:00,
2013-11-26 14:27:00,31.5,29.2,29.86,NNW,337,0.0,2.0,91,0.00,,SKC,0.01,VWS V14.01,2013-11-26 19:27:00,
2013-11-26 14:32:00,31.6,29.3,29.86,NNW,337,0.0,2.0,91,0.00,,SKC,0.01,VWS V14.01,2013-11-26 19:32:00,
2013-11-26 14:37:00,31.6,29.3,29.87,NNW,337,0.0,2.0,91,0.00,,SKC,0.01,VWS V14.01,2013-11-26 19:37:00,
2013-11-26 14:42:00,31.6,29.3,29.87,NNW,337,0.0,2.0,91,0.00,,SKC,0.01,VWS V14.01,2013-11-26 19:42:00,
2013-11-26 14:47:00,31.6,29.3,29.87,NNW,337,0.0,2.0,91,0.00,,SKC,0.01,VWS V14.01,2013-11-26 19:47:00,
2013-11-26 14:52:00,31.6,29.3,29.87,NNW,337,0.0,0.0,91,0.00,,SKC,0.01,VWS V14.01,2013-11-26 19:52:00,
2013-11-26 14:57:00,31.6,29.3,29.87,NNW,337,0.0,0.0,91,0.00,,SKC,0.01,VWS V14.01,2013-11-26 19:57:00,
2013-11-26 15:00:00,31.6,29.3,29.87,NNW,337,0.0,2.0,91,0.00,,SKC,0.01,VWS V14.01,2013-11-26 20:00:00,
2013-11-26 15:02:00,31.6,29.3,29.87,NNW,337,0.0,0.0,91,0.00,,SKC,0.01,VWS V14.01,2013-11-26 20:02:00,
2013-11-26 15:07:00,31.6,29.3,29.86,NNW,337,0.0,0.0,91,0.00,,SKC,0.01,VWS V14.01,2013-11-26 20:07:00,
2013-11-26 15:13:00,31.5,29.2,29.86,NNW,337,2.0,2.0,91,0.00,,SKC,0.01,VWS V14.01,2013-11-26 20:13:00,
2013-11-26 15:18:00,31.5,29.2,29.86,NNW,337,1.0,2.0,91,0.00,,SKC,0.01,VWS V14.01,2013-11-26 20:18:00,
2013-11-26 15:23:00,31.5,29.2,29.85,NNW,337,0.0,2.0,91,0.00,,SKC,0.01,VWS V14.01,2013-11-26 20:23:00,
2013-11-26 15:28:00,31.5,29.2,29.85,NNW,337,0.0,2.0,91,0.00,,SKC,0.01,VWS V14.01,2013-11-26 20:28:00,
2013-11-26 15:33:00,31.5,29.2,29.85,NNW,337,0.0,2.0,91,0.00,,SKC,0.01,VWS V14.01,2013-11-26 20:33:00,
2013-11-26 15:38:00,31.5,29.2,29.85,NNW,337,0.0,2.0,91,0.00,,SKC,0.01,VWS V14.01,2013-11-26 20:38:00,
2013-11-26 15:43:00,31.5,29.2,29.85,NNW,337,0.0,2.0,91,0.00,,SKC,0.01,VWS V14.01,2013-11-26 20:43:00,
2013-11-26 15:48:00,31.5,29.2,29.85,NNW,337,0.0,2.0,91,0.00,,SKC,0.01,VWS V14.01,2013-11-26 20:48:00,
2013-11-26 15:54:00,31.5,29.5,29.85,NNW,337,0.0,0.0,92,0.00,,SKC,0.01,VWS V14.01,2013-11-26 20:54:00,
2013-11-26 15:59:00,31.5,29.5,29.85,NNW,337,0.0,0.0,92,0.00,,SKC,0.01,VWS V14.01,2013-11-26 20:59:00,
2013-11-26 16:00:00,31.5,29.2,29.85,NNW,337,0.0,2.0,91,0.00,,SKC,0.01,VWS V14.01,2013-11-26 21:00:00,
2013-11-26 16:04:00,31.5,29.5,29.85,NNW,337,0.0,0.0,92,0.00,,SKC,0.01,VWS V14.01,2013-11-26 21:04:00,
2013-11-26 16:09:00,31.5,29.5,29.84,NNW,337,0.0,0.0,92,0.00,,SKC,0.01,VWS V14.01,2013-11-26 21:09:00,
2013-11-26 16:14:00,31.5,29.5,29.84,NNW,337,0.0,0.0,92,0.00,,SKC,0.01,VWS V14.01,2013-11-26 21:14:00,
2013-11-26 16:19:00,31.5,29.5,29.84,NNW,337,0.0,0.0,92,0.00,,SKC,0.01,VWS V14.01,2013-11-26 21:19:00,
2013-11-26 16:24:00,31.5,29.5,29.84,NNW,337,0.0,0.0,92,0.00,,SKC,0.01,VWS V14.01,2013-11-26 21:24:00,
2013-11-26 16:29:00,31.5,29.5,29.84,NNW,337,0.0,0.0,92,0.00,,SKC,0.01,VWS V14.01,2013-11-26 21:29:00,
2013-11-26 16:34:00,31.5,29.5,29.84,NNW,337,0.0,0.0,92,0.00,,SKC,0.01,VWS V14.01,2013-11-26 21:34:00,
2013-11-26 16:39:00,31.5,29.5,29.83,NNW,337,0.0,0.0,92,0.00,,SKC,0.01,VWS V14.01,2013-11-26 21:39:00,
2013-11-26 16:45:00,31.3,29.2,29.83,NNW,337,0.0,0.0,92,0.00,,SKC,0.01,VWS V14.01,2013-11-26 21:45:00,
2013-11-26 16:50:00,31.3,29.2,29.83,NNW,337,0.0,0.0,92,0.00,,SKC,0.01,VWS V14.01,2013-11-26 21:50:00,
2013-11-26 16:55:00,31.3,29.2,29.82,NNW,337,0.0,0.0,92,0.00,,SKC,0.01,VWS V14.01,2013-11-26 21:55:00,
2013-11-26 17:00:00,31.2,29.1,29.82,NNW,337,0.0,0.0,92,0.00,,SKC,0.01,VWS V14.01,2013-11-26 22:00:00,
2013-11-26 17:05:00,31.2,29.1,29.82,NNW,337,0.0,0.0,92,0.00,,SKC,0.01,VWS V14.01,2013-11-26 22:05:00,
2013-11-26 17:10:00,31.2,29.1,29.82,NNW,337,0.0,0.0,92,0.00,,SKC,0.01,VWS V14.01,2013-11-26 22:10:00,
2013-11-26 17:15:00,31.2,29.1,29.82,NNW,337,0.0,0.0,92,0.00,,SKC,0.01,VWS V14.01,2013-11-26 22:15:00,
2013-11-26 17:20:00,31.2,29.1,29.82,NNW,337,0.0,0.0,92,0.00,,SKC,0.01,VWS V14.01,2013-11-26 22:20:00,
2013-11-26 17:25:00,31.2,29.1,29.81,NNW,337,0.0,0.0,92,0.00,,SKC,0.01,VWS V14.01,2013-11-26 22:25:00,
2013-11-26 17:30:00,31.0,29.0,29.81,NNW,337,0.0,0.0,92,0.00,,SKC,0.01,VWS V14.01,2013-11-26 22:30:00,
2013-11-26 17:35:00,31.0,29.0,29.81,NNW,337,0.0,0.0,92,0.00,,SKC,0.01,VWS V14.01,2013-11-26 22:35:00,
2013-11-26 17:41:00,31.0,29.0,29.82,NNW,337,0.0,0.0,92,0.00,,SKC,0.01,VWS V14.01,2013-11-26 22:41:00,
2013-11-26 17:46:00,31.0,29.0,29.82,NNW,337,0.0,0.0,92,0.00,,SKC,0.01,VWS V14.01,2013-11-26 22:46:00,
2013-11-26 17:51:00,31.0,29.0,29.82,NNW,337,0.0,0.0,92,0.00,,SKC,0.01,VWS V14.01,2013-11-26 22:51:00,
2013-11-26 17:56:00,31.0,29.0,29.82,NNW,337,0.0,0.0,92,0.00,,SKC,0.01,VWS V14.01,2013-11-26 22:56:00,
2013-11-26 18:00:00,31.0,29.0,29.82,NNW,337,0.0,0.0,92,0.00,,SKC,0.01,VWS V14.01,2013-11-26 23:00:00,
2013-11-26 18:01:00,31.0,29.0,29.82,NNW,337,0.0,0.0,92,0.00,,SKC,0.01,VWS V14.01,2013-11-26 23:01:00,
2013-11-26 18:06:00,31.0,29.0,29.81,NNW,337,0.0,0.0,92,0.00,,SKC,0.01,VWS V14.01,2013-11-26 23:06:00,
2013-11-26 18:11:00,31.0,29.0,29.81,NNW,337,0.0,0.0,92,0.00,,SKC,0.01,VWS V14.01,2013-11-26 23:11:00,
2013-11-26 18:16:00,31.0,29.0,29.81,NNW,337,0.0,0.0,92,0.00,,SKC,0.01,VWS V14.01,2013-11-26 23:16:00,
2013-11-26 18:21:00,31.0,29.0,29.80,NNW,337,0.0,0.0,92,0.00,,SKC,0.01,VWS V14.01,2013-11-26 23:21:00,
2013-11-26 18:27:00,31.0,29.0,29.80,NNW,337,0.0,0.0,92,0.00,,SKC,0.01,VWS V14.01,2013-11-26 23:27:00,
2013-11-26 18:32:00,31.0,29.0,29.80,NNW,337,0.0,0.0,92,0.00,,SKC,0.01,VWS V14.01,2013-11-26 23:32:00,
2013-11-26 18:37:00,30.9,28.9,29.78,NNW,337,0.0,0.0,92,0.00,,SKC,0.01,VWS V14.01,2013-11-26 23:37:00,
2013-11-26 18:42:00,30.9,28.9,29.78,NNW,337,0.0,0.0,92,0.00,,SKC,0.01,VWS V14.01,2013-11-26 23:42:00,
2013-11-26 18:47:00,30.9,28.9,29.78,NNW,337,0.0,0.0,92,0.00,,SKC,0.01,VWS V14.01,2013-11-26 23:47:00,
2013-11-26 18:52:00,30.9,28.9,29.79,NNW,337,0.0,0.0,92,0.00,,SKC,0.01,VWS V14.01,2013-11-26 23:52:00,
2013-11-26 18:57:00,30.9,28.9,29.79,NNW,337,0.0,0.0,92,0.00,,SKC,0.01,VWS V14.01,2013-11-26 23:57:00,
2013-11-26 19:00:00,30.9,28.9,29.79,NNW,337,0.0,0.0,92,0.00,,SKC,0.01,VWS V14.01,2013-11-27 00:00:00,
2013-11-26 19:02:00,30.9,28.9,29.79,NNW,337,0.0,0.0,92,0.00,,SKC,0.01,VWS V14.01,2013-11-27 00:02:00,
2013-11-26 19:07:00,30.9,28.9,29.77,NNW,337,0.0,0.0,92,0.00,,SKC,0.01,VWS V14.01,2013-11-27 00:07:00,
2013-11-26 20:00:00,30.9,28.9,29.76,NNW,337,0.0,0.0,92,0.00,,SKC,0.01,VWS V14.01,2013-11-27 01:00:00,
2013-11-26 21:00:00,30.6,28.8,29.75,SE,130,0.0,0.0,93,0.00,,SKC,0.01,VWS V14.01,2013-11-27 02:00:00,
2013-11-26 21:53:00,30.1,28.3,29.75,SE,134,0.0,0.0,93,0.00,,SKC,0.01,VWS V14.01,2013-11-27 02:53:00,
2013-11-26 21:58:00,30.1,28.3,29.75,SE,134,0.0,0.0,93,0.00,,SKC,0.01,VWS V14.01,2013-11-27 02:58:00,
2013-11-26 22:00:00,29.4,27.6,29.72,SE,132,6.0,10.0,93,0.00,,SKC,0.01,VWS V15.00,2013-11-27 03:00:00,
2013-11-26 22:03:00,30.1,28.3,29.75,SE,130,0.0,0.0,93,0.00,,SKC,0.01,VWS V14.01,2013-11-27 03:03:00,
2013-11-26 22:08:00,30.0,28.2,29.73,SE,132,0.0,0.0,93,0.00,,SKC,0.01,VWS V14.01,2013-11-27 03:08:00,
2013-11-26 22:14:00,29.8,28.0,29.73,SE,130,0.0,0.0,93,0.00,,SKC,0.01,VWS V14.01,2013-11-27 03:14:00,
2013-11-26 22:19:00,29.7,27.9,29.73,SE,130,5.0,8.0,93,0.00,,SKC,0.01,VWS V14.01,2013-11-27 03:19:00,
2013-11-26 22:24:00,29.5,27.7,29.74,SE,128,6.0,9.0,93,0.00,,SKC,0.01,VWS V14.01,2013-11-27 03:24:00,
2013-11-26 22:29:00,29.5,27.7,29.74,ESE,112,7.0,9.0,93,0.00,,SKC,0.01,VWS V14.01,2013-11-27 03:29:00,
2013-11-26 22:34:00,29.4,27.6,29.74,SE,131,7.0,10.0,93,0.00,,SKC,0.01,VWS V14.01,2013-11-27 03:34:00,
2013-11-26 22:39:00,29.4,27.6,29.73,SE,141,7.0,10.0,93,0.00,,SKC,0.01,VWS V14.01,2013-11-27 03:39:00,
2013-11-26 22:44:00,29.4,27.6,29.73,SE,136,6.0,10.0,93,0.00,,SKC,0.01,VWS V14.01,2013-11-27 03:44:00,
2013-11-26 22:49:00,29.4,27.6,29.73,SE,133,5.0,10.0,93,0.00,,SKC,0.01,VWS V14.01,2013-11-27 03:49:00,
2013-11-26 22:54:00,29.3,27.5,29.72,ESE,121,6.0,8.0,93,0.00,,SKC,0.01,VWS V14.01,2013-11-27 03:54:00,
2013-11-26 23:00:00,29.3,27.5,29.72,SE,136,6.0,9.0,93,0.00,,SKC,0.01,VWS V14.01,2013-11-27 04:00:00,
2013-11-26 23:05:00,29.3,27.5,29.72,ESE,122,9.0,11.0,93,0.00,,SKC,0.01,VWS V14.01,2013-11-27 04:05:00,
2013-11-26 23:10:00,29.3,27.5,29.72,SE,134,6.0,11.0,93,0.00,,SKC,0.01,VWS V14.01,2013-11-27 04:10:00,
2013-11-26 23:15:00,29.3,27.5,29.72,SE,134,7.0,11.0,93,0.00,,SKC,0.01,VWS V14.01,2013-11-27 04:15:00,
2013-11-26 23:20:00,29.3,27.5,29.72,SE,136,5.0,11.0,93,0.00,,SKC,0.01,VWS V14.01,2013-11-27 04:20:00,
2013-11-26 23:25:00,29.3,27.5,29.72,ESE,123,5.0,11.0,93,0.00,,SKC,0.01,VWS V14.01,2013-11-27 04:25:00,
2013-11-26 23:30:00,29.1,27.3,29.72,SE,135,8.0,11.0,93,0.00,,SKC,0.01,VWS V14.01,2013-11-27 04:30:00,
2013-11-26 23:35:00,29.1,27.3,29.72,SE,126,6.0,11.0,93,0.00,,SKC,0.01,VWS V14.01,2013-11-27 04:35:00,
2013-11-26 23:40:00,29.1,27.3,29.71,SE,132,0.0,11.0,93,0.00,,SKC,0.01,VWS V14.01,2013-11-27 04:40:00,
2013-11-26 23:45:00,29.1,27.3,29.71,SE,132,4.0,11.0,93,0.00,,SKC,0.01,VWS V14.01,2013-11-27 04:45:00,
2013-11-26 23:51:00,29.3,27.5,29.71,SE,144,7.0,11.0,93,0.00,,SKC,0.01,VWS V14.01,2013-11-27 04:51:00,
2013-11-26 23:56:00,29.3,27.5,29.72,SE,128,5.0,7.0,93,0.00,,SKC,0.00,VWS V14.01,2013-11-27 04:56:00,